EW4565 Weather Reports


Display with metric or nautical units.
time (UTC)temp
F
wind
direction
speed
MPH
gust
MPH
rain 1hr
in
rain 24hr
in
rain mn
in
humidity
%
barometer
mb
20260902185031 56 56 0.0 0.0 0.00 0.00 0.00 78 1006.2
20260902185003 65 98 0.0 3.0 0.00 0.00 0.00 66 1007.4
20260902184958 56 56 0.0 0.0 0.00 0.00 0.00 78 1006.4
20260902184941 56 56 0.0 0.0 0.00 0.00 0.00 79 1006.3
20260902184912 56 56 0.0 0.0 0.00 0.00 0.00 78 1006.5
20260902184851 56 56 0.0 0.0 0.00 0.00 0.00 78 1006.5
20260902184825 56 56 0.0 0.0 0.00 0.00 0.00 78 1006.5
20260902184756 56 56 0.0 0.0 0.00 0.00 0.00 78 1006.5
20260902184740 56 56 0.0 0.0 0.00 0.00 0.00 78 1006.5
20260902184632 65 98 0.0 2.0 0.00 0.00 0.00 67 1007.4
20260902184337 56 56 0.0 0.0 0.00 0.00 0.00 79 1006.5
20260902184304 56 56 0.0 0.0 0.00 0.00 0.00 79 1006.5
20260902184244 56 56 0.0 0.0 0.00 0.00 0.00 79 1006.4
20260902184213 56 56 0.0 0.0 0.00 0.00 0.00 78 1006.4
20260902184152 56 56 0.0 0.0 0.00 0.00 0.00 78 1006.5
20260902184101 65 98 0.0 2.0 0.00 0.00 0.00 67 1007.3
20260902183653 65 98 0.0 1.0 0.00 0.00 0.00 67 1007.2
20260902183407 56 56 0.0 0.0 0.00 0.00 0.00 77 1006.7
20260902183346 56 56 0.0 0.0 0.00 0.00 0.00 77 1006.7
20260902183328 56 56 0.0 0.0 0.00 0.00 0.00 77 1006.7
20260902183258 56 56 0.0 0.0 0.00 0.00 0.00 76 1006.7
20260902183236 57 56 0.0 0.0 0.00 0.00 0.00 76 1006.7
20260902183205 57 56 0.0 0.0 0.00 0.00 0.00 76 1006.8
20260902183143 57 56 0.0 0.0 0.00 0.00 0.00 76 1006.7
20260902183109 57 56 0.0 0.0 0.00 0.00 0.00 76 1006.7
20260902183050 57 56 0.0 0.0 0.00 0.00 0.00 75 1006.6
20260902183027 57 56 0.0 0.0 0.00 0.00 0.00 75 1006.5
20260902183001 65 95 0.0 4.0 0.00 0.00 0.00 68 1007.2
20260902182953 57 56 0.0 0.0 0.00 0.00 0.00 75 1006.5
20260902182932 57 56 0.0 0.0 0.00 0.00 0.00 75 1006.6
20260902182526 57 56 0.0 0.0 0.00 0.00 0.00 75 1006.5
20260902182501 65 99 0.0 4.0 0.00 0.00 0.00 67 1007.3
20260902181801 57 56 0.0 0.0 0.00 0.00 0.00 75 1006.6
20260902181744 57 56 0.0 0.0 0.00 0.00 0.00 75 1006.7
20260902181722 57 56 0.0 0.0 0.00 0.00 0.00 73 1006.7
20260902181653 58 56 0.0 0.0 0.00 0.00 0.00 73 1006.7
20260902181633 58 56 0.0 0.0 0.00 0.00 0.00 73 1006.7
20260902181558 58 56 0.0 0.0 0.00 0.00 0.00 73 1006.7
20260902181540 58 56 0.0 0.0 0.00 0.00 0.00 73 1006.7
20260902181506 64 60 0.0 3.0 0.00 0.00 0.00 65 1007.3
20260902181501 58 56 0.0 0.0 0.00 0.00 0.00 73 1006.7
20260902181441 58 56 0.0 0.0 0.00 0.00 0.00 73 1006.7
20260902181406 58 56 0.0 0.0 0.00 0.00 0.00 73 1006.8
20260902181346 58 56 0.0 0.0 0.00 0.00 0.00 73 1006.9
20260902181207 64 58 0.0 3.0 0.00 0.00 0.00 66 1007.1
20260902180939 58 56 0.0 0.0 0.00 0.00 0.00 72 1006.9
20260902180918 58 56 0.0 0.0 0.00 0.00 0.00 71 1006.9
20260902180848 59 56 0.0 0.0 0.00 0.00 0.00 70 1006.9
20260902180820 59 56 0.0 0.0 0.00 0.00 0.00 70 1006.9
20260902180651 63 58 0.0 1.0 0.00 0.00 0.00 67 1007.2
20260902180402 60 56 0.0 0.0 0.00 0.00 0.00 68 1007.0
20260902180344 60 56 0.0 0.0 0.00 0.00 0.00 68 1007.0
20260902180057 61 56 0.0 1.0 0.00 0.00 0.00 66 1007.1
20260902180038 61 56 0.0 1.0 0.00 0.00 0.00 65 1007.1
20260902180008 61 56 0.0 2.0 0.00 0.00 0.00 65 1007.1
20260902180003 63 58 0.0 5.0 0.00 0.00 0.00 68 1007.2
20260902175941 61 56 0.0 2.0 0.00 0.00 0.00 67 1007.1
20260902175923 61 56 0.0 2.0 0.00 0.00 0.00 67 1007.1
20260902175853 61 56 0.0 2.0 0.00 0.00 0.00 68 1007.1
20260902175834 61 56 0.0 1.0 0.00 0.00 0.00 67 1007.1
20260902175759 61 56 0.0 1.0 0.00 0.00 0.00 68 1007.1
20260902175738 62 56 0.0 1.0 0.00 0.00 0.00 67 1007.2
20260902175615 63 58 0.0 5.0 0.00 0.00 0.00 68 1007.3
20260902175307 62 56 0.0 2.0 0.00 0.00 0.00 67 1007.3
20260902175248 62 56 0.0 2.0 0.00 0.00 0.00 67 1007.3
20260902175226 62 56 0.0 2.0 0.00 0.00 0.00 68 1007.4
20260902175159 61 56 0.0 2.0 0.00 0.00 0.00 68 1007.3
20260902175138 61 57 0.0 0.0 0.00 0.00 0.00 69 1007.4
20260902175000 63 58 1.0 5.0 0.00 0.00 0.00 68 1007.3
20260902174636 63 58 1.0 6.0 0.00 0.00 0.00 69 1007.3
20260902174353 65 58 0.0 0.0 0.00 0.00 0.00 62 1007.4
20260902174336 65 58 0.0 0.0 0.00 0.00 0.00 62 1007.4
20260902174205 63 60 1.0 6.0 0.00 0.00 0.00 69 1007.4
20260902173930 65 58 0.0 1.0 0.00 0.00 0.00 61 1007.4
20260902173902 66 58 0.0 1.0 0.00 0.00 0.00 61 1007.4
20260901192806 71 285 0.0 3.0 0.00 0.00 0.00 55 1008.4
20260901192306 70 285 0.0 3.0 0.00 0.00 0.00 54 1008.4
20260901191805 70 285 0.0 3.0 0.00 0.00 0.00 54 1008.5
20260901191304 70 285 0.0 3.0 0.00 0.00 0.00 54 1008.7
20260901190810 70 285 0.0 3.0 0.00 0.00 0.00 54 1008.7
20260901190306 70 285 0.0 3.0 0.00 0.00 0.00 54 1008.8
20260901185803 70 285 0.0 3.0 0.00 0.00 0.00 56 1008.9
20260901185306 70 285 0.0 3.0 0.00 0.00 0.00 54 1008.9